Vertical_Velocity
-3 -5 -4 -8 -10 -7 -2 -1 -4 -3 -3 -2 -1 0 -0 -1 2 1 4 -1 -8 4 2 2 1 -1 1 5 2 2 1 -1 3 1 1 4 4 0 0 -0 1 2 4 -3 1 -0 4
-3 -3 -5 -2 -4 -7 -6 -2 -0 0 -2 -3 -2 0 -1 1 -1 1 3 0 6 -0 7 2 4 -1 3 6 2 1 2 6 5 1 1 0 2 2 -1 1 -0 4 3 -0 3 2 4
-2 -2 -3 -4 -2 -5 -6 -0 1 -1 0 -3 -1 -3 1 -2 0 -0 1 -3 -4 -4 0 2 1 0 7 -9 1 2 3 2 0 2 4 -0 3 1 4 -1 -0 1 -2 -2 3 2 0
-1 -3 -0 1 -5 -3 -2 -4 0 -1 2 -1 0 0 -2 0 -1 -1 -3 -2 -4 -5 1 -0 1 3 -1 6 3 2 2 3 0 2 -0 -3 -3 -3 -2 2 -1 -0 -1 -5 6 3 3
-3 -4 -6 -6 -4 -5 -4 -6 -4 4 0 1 -1 -1 1 -2 -1 -0 -1 -2 -1 -3 2 1 4 1 -4 2 2 1 3 1 1 -0 1 0 -3 2 -2 1 -2 -3 4 5 2 1 4
-5 -3 -3 -4 -2 -6 -2 -1 -2 -1 -1 -1 -1 -3 -0 0 -0 -2 -1 -1 -0 -6 -1 -1 2 2 2 2 -0 2 2 1 4 2 -1 -2 -3 -1 -4 0 -2 5 -0 -1 1 4 -1
-5 -2 -1 -1 -3 -3 -7 -5 -1 -0 1 0 2 -1 0 -0 -2 1 -1 -0 -3 0 3 -1 3 2 -2 0 0 2 1 1 -0 -0 1 -1 -4 2 13 8 2 0 0 2 2 6 4
-2 -0 -4 -1 -2 -2 -3 -4 -7 -9 -4 -1 1 1 -0 -2 0 -4 0 1 -0 2 0 2 10 -1 1 1 1 2 0 1 1 3 -1 -3 3 3 2 -0 1 0 2 3 1 5 5
-2 -2 -2 -2 -1 -1 -7 -5 -4 -1 -2 -1 -1 -4 1 -2 1 1 1 0 -3 1 -0 -2 2 2 -1 1 -1 -1 -1 4 4 1 4 2 13 3 3 -0 1 0 2 -1 4 4 3
-3 -3 -3 -2 -4 1 -3 -3 -3 -2 -4 1 -5 3 3 -1 -3 -5 2 -1 3 3 -2 1 -3 -1 4 -1 0 3 -1 -3 -2 5 3 -0 0 3 0 -0 1 2 4 0 2 1 -1
-3 -2 -1 -3 -3 -2 -1 -1 -4 -7 -5 -2 -2 -5 -8 -4 -7 -2 -7 -3 4 4 -2 -10 -1 2 6 1 6 -0 -1 0 4 3 -2 21 4 5 0 6 4 3 4 4 -2 -2 0
-4 -4 -3 -5 -4 -3 -1 -2 -0 3 1 -7 -3 -1 1 -3 -2 -1 -0 -4 0 -4 6 -3 -2 2 1 6 4 -4 -2 -0 -0 -3 1 -6 -2 -1 3 3 4 3 2 0 -1 -0 -14
-3 -2 -2 -2 -2 -4 -3 -2 -1 1 -1 -1 1 -0 -3 4 3 -1 -2 -1 -3 5 1 2 -1 -2 1 3 8 6 4 4 1 -1 1 3 1 2 -1 1 -3 -4 3 -2 -6 -16 -15
-1 -1 -4 -3 -3 -3 -3 -5 -7 -5 -1 -3 0 -0 -2 -0 1 -2 1 3 -3 1 -2 2 3 0 -0 0 3 6 11 -2 -1 -0 1 -2 -9 -0 5 0 12 12 10 2 -3 -5 7
-1 -2 -3 -2 -3 -4 -1 -5 -6 -8 -5 -2 -0 2 -1 -3 -4 3 4 -1 3 -1 -4 -0 1 9 3 1 2 4 8 9 2 5 0 -1 -6 1 1 3 2 9 -20 22 -0 0 -8
-3 -2 -1 -1 -0 -1 -6 -4 -1 -5 -4 -5 -9 -7 3 2 -5 -1 3 2 0 1 -1 -2 -0 -1 1 3 -0 6 5 9 11 9 6 1 5 2 1 3 -6 -2 18 0 -8 -12 -9
-1 -2 -3 -3 -1 0 -2 -6 -5 -2 -3 -5 -4 -5 -8 -6 3 3 -3 -1 -1 1 2 -2 1 -0 7 -2 3 3 2 3 1 10 22 8 8 2 6 -1 7 4 -6 -7 0 -13 -7
-1 -1 -0 -3 -4 -1 0 -1 -1 -2 -8 -3 -6 -9 -3 -1 -7 3 8 -4 -7 2 3 -1 -1 -1 2 5 2 1 -4 4 6 2 -1 14 14 -0 3 3 1 1 -0 4 -7 -2 -2
-1 -1 0 -2 -2 -1 -2 -2 1 0 -2 -5 -6 -8 -3 -2 -3 -1 -6 1 1 -2 -1 5 -1 0 3 3 2 2 3 3 1 7 5 9 -9 1 4 -4 -3 -10 2 2 2 5 -10
-1 -1 0 -3 -3 -3 -1 -1 -0 -1 -1 -2 -5 -7 2 -5 -2 -6 -0 6 -1 -1 -2 -1 2 1 0 3 3 -1 5 8 11 6 6 13 8 -3 0 9 10 -2 13 11 9 -2 14
-2 -0 1 -0 -0 2 -4 -2 -4 -2 0 2 1 -9 -11 -8 -2 -1 0 3 6 -2 -3 -2 4 3 -3 -1 3 -1 2 2 6 6 3 4 -4 4 3 4 -1 1 5 8 -1 7 -6
-2 -0 -3 -0 -1 -1 -0 -6 -1 -2 -3 -5 -4 0 3 -8 -10 1 -4 -7 7 11 -1 3 -1 4 -1 -5 -0 1 1 2 2 8 10 11 -6 2 3 1 -1 -1 1 -1 -0 0 -5
-1 -3 -2 -3 -1 -2 0 -0 -1 -3 1 2 0 0 -6 -0 -6 -3 -0 3 -4 -1 8 2 -1 2 1 3 -6 0 4 1 -1 3 6 6 0 3 -6 8 6 -15 2 2 2 -1 5
-1 -1 -2 -1 -1 -2 -0 0 1 -1 -1 3 -1 -2 1 4 3 -3 -1 1 3 -1 -2 6 -0 -3 3 1 -0 -1 -3 2 1 -1 8 -3 4 5 -3 1 -10 4 7 2 1 3 2
0 -2 -1 -2 -1 -2 -1 -1 -2 -1 -2 -1 -3 -1 -1 -4 4 1 -4 2 -2 -1 0 5 4 -1 -1 2 -2 -7 -1 -1 2 3 -3 2 5 1 2 3 -3 -4 0 1 3 4 2
0 -1 -1 -1 -0 -3 -4 -3 1 -1 -0 -3 -1 -6 0 -5 10 -2 -8 -7 -5 -1 3 5 4 3 1 0 2 -11 -4 1 -3 0 2 -3 5 9 -0 -1 -4 2 1 2 4 -8 -1
-1 -1 -0 -0 0 -1 -1 -0 -2 -1 -1 2 -3 1 -1 3 0 -4 9 0 -5 -7 -5 -2 -0 1 2 -0 -1 -2 -5 1 -2 -2 4 2 -3 2 5 3 -7 -4 2 -5 -2 1 -0
-1 -1 -1 0 1 -1 -0 -0 -2 -1 -1 -1 0 -0 -1 0 -1 -2 0 2 -2 -5 -3 -1 -2 0 -1 0 1 4 -5 2 1 1 2 2 2 -1 0 2 0 1 2 10 3 3 -0
-1 -0 1 -0 -1 0 0 0 -2 -2 -5 -1 -2 1 4 3 -4 -1 -2 1 1 -2 -2 -2 1 -0 1 5 2 3 1 2 7 -1 2 -0 -2 3 2 10 5 6 1 4 3 2 3
Height
5726 5715 5703 5691 5680 5669 5658 5651 5646 5642 5637 5633 5628 5626 5625 5624 5624 5626 5629 5632 5632 5633 5637 5639 5644 5647 5650 5654 5659 5664 5668 5674 5681 5686 5691 5695 5698 5702 5706 5710 5713 5717 5722 5728 5732 5734 5737
5721 5711 5699 5687 5677 5665 5655 5650 5644 5641 5636 5632 5628 5624 5623 5622 5622 5624 5625 5628 5629 5632 5633 5636 5639 5642 5646 5650 5653 5658 5663 5670 5677 5682 5686 5690 5693 5696 5699 5702 5705 5711 5716 5720 5725 5729 5731
5718 5708 5697 5685 5673 5664 5653 5647 5643 5639 5635 5631 5629 5624 5621 5620 5620 5622 5623 5625 5626 5628 5630 5633 5636 5639 5642 5644 5648 5653 5659 5665 5670 5675 5680 5683 5687 5689 5693 5696 5699 5704 5709 5714 5718 5720 5724
5715 5705 5694 5683 5673 5663 5653 5645 5641 5637 5632 5630 5628 5624 5621 5619 5618 5620 5622 5624 5625 5625 5626 5629 5633 5635 5639 5641 5645 5649 5654 5660 5665 5669 5673 5676 5679 5682 5685 5690 5694 5698 5703 5707 5710 5713 5717
5711 5701 5692 5683 5673 5662 5653 5645 5639 5634 5630 5628 5627 5624 5621 5619 5617 5617 5618 5621 5622 5624 5624 5625 5629 5633 5635 5639 5642 5646 5651 5655 5660 5663 5667 5672 5673 5676 5681 5685 5688 5690 5695 5700 5705 5708 5713
5708 5698 5690 5681 5672 5662 5653 5644 5638 5633 5629 5625 5623 5623 5621 5618 5616 5615 5616 5617 5619 5622 5622 5623 5626 5631 5633 5636 5638 5642 5647 5651 5655 5659 5663 5666 5668 5671 5676 5680 5685 5691 5695 5699 5703 5706 5708
5705 5697 5689 5679 5670 5661 5653 5644 5637 5632 5628 5624 5621 5620 5619 5617 5615 5614 5614 5615 5618 5619 5620 5621 5623 5625 5629 5632 5634 5639 5643 5647 5650 5654 5658 5662 5664 5668 5677 5679 5682 5684 5687 5692 5697 5701 5705
5704 5695 5687 5677 5669 5660 5653 5644 5638 5631 5626 5622 5619 5618 5617 5616 5614 5613 5611 5612 5614 5616 5617 5617 5620 5622 5625 5628 5631 5634 5639 5643 5646 5651 5654 5657 5662 5667 5668 5670 5673 5676 5680 5684 5689 5692 5698
5702 5695 5685 5677 5668 5659 5652 5644 5639 5631 5626 5621 5619 5616 5614 5613 5612 5611 5610 5611 5611 5612 5615 5615 5617 5619 5622 5625 5628 5631 5634 5638 5642 5645 5650 5654 5662 5661 5662 5664 5668 5672 5675 5680 5684 5688 5691
5699 5692 5684 5676 5666 5659 5652 5645 5639 5631 5624 5620 5617 5615 5612 5610 5611 5609 5608 5607 5608 5609 5610 5612 5613 5615 5618 5620 5624 5627 5629 5633 5636 5641 5644 5648 5652 5655 5656 5659 5664 5668 5673 5674 5678 5681 5683
5698 5689 5682 5674 5664 5657 5651 5645 5638 5631 5625 5619 5617 5614 5611 5608 5606 5606 5606 5604 5605 5606 5606 5609 5609 5611 5614 5616 5620 5623 5626 5629 5632 5635 5639 5646 5647 5650 5650 5658 5659 5663 5665 5667 5669 5671 5674
5696 5687 5680 5672 5663 5655 5650 5644 5636 5631 5625 5619 5616 5612 5609 5607 5605 5603 5603 5604 5602 5603 5601 5603 5605 5606 5608 5611 5614 5616 5619 5624 5627 5629 5632 5634 5639 5641 5647 5650 5651 5655 5657 5660 5661 5663 5661
5692 5685 5677 5669 5662 5654 5648 5642 5635 5629 5624 5620 5614 5610 5607 5606 5603 5600 5598 5600 5601 5599 5599 5599 5600 5601 5602 5605 5609 5612 5614 5617 5620 5624 5626 5629 5632 5635 5639 5641 5642 5645 5650 5651 5654 5654 5659
5689 5681 5674 5666 5658 5651 5645 5640 5634 5628 5623 5619 5613 5609 5605 5602 5601 5599 5598 5597 5595 5595 5594 5594 5596 5596 5598 5599 5602 5605 5608 5610 5613 5615 5620 5622 5625 5629 5633 5635 5639 5642 5645 5645 5646 5649 5655
5686 5677 5670 5662 5655 5647 5642 5636 5631 5626 5621 5617 5611 5607 5602 5599 5596 5595 5594 5593 5591 5590 5589 5588 5588 5591 5592 5594 5596 5598 5600 5603 5606 5609 5613 5615 5617 5621 5625 5628 5631 5632 5631 5642 5641 5642 5645
5681 5673 5666 5657 5650 5643 5637 5632 5626 5622 5619 5614 5610 5604 5600 5597 5594 5592 5591 5589 5586 5585 5584 5583 5583 5583 5585 5587 5589 5590 5591 5594 5597 5601 5603 5607 5611 5614 5616 5619 5621 5623 5632 5631 5631 5633 5636
5676 5669 5661 5653 5645 5639 5633 5628 5621 5617 5613 5609 5606 5601 5596 5593 5588 5585 5582 5582 5581 5578 5578 5578 5577 5576 5577 5577 5580 5581 5583 5587 5586 5590 5594 5597 5600 5603 5607 5609 5613 5617 5618 5620 5624 5626 5629
5670 5663 5656 5649 5641 5633 5627 5622 5617 5611 5607 5602 5600 5596 5592 5587 5583 5578 5574 5571 5574 5572 5570 5569 5570 5569 5569 5570 5569 5570 5573 5576 5580 5582 5582 5588 5590 5591 5597 5600 5604 5607 5611 5614 5615 5619 5622
5664 5657 5650 5644 5636 5628 5622 5616 5610 5604 5600 5595 5592 5588 5584 5579 5576 5573 5571 5568 5565 5563 5561 5561 5561 5561 5561 5561 5560 5561 5563 5566 5569 5572 5575 5578 5578 5581 5586 5591 5594 5596 5602 5605 5609 5612 5612
5656 5651 5644 5637 5631 5623 5616 5608 5602 5596 5591 5586 5583 5579 5577 5573 5568 5565 5562 5558 5555 5553 5552 5550 5551 5551 5551 5551 5550 5551 5554 5556 5559 5562 5565 5567 5568 5572 5577 5581 5587 5588 5593 5597 5600 5601 5605
5649 5643 5637 5630 5623 5615 5607 5599 5593 5587 5582 5577 5573 5570 5564 5562 5559 5555 5551 5549 5545 5542 5543 5541 5541 5539 5538 5539 5541 5541 5542 5544 5547 5550 5553 5554 5558 5563 5566 5570 5572 5576 5581 5585 5589 5593 5595
5641 5636 5629 5621 5613 5605 5597 5592 5585 5579 5572 5567 5562 5559 5554 5550 5544 5541 5538 5539 5537 5533 5532 5532 5529 5529 5528 5528 5528 5529 5530 5532 5534 5539 5541 5544 5547 5551 5554 5559 5563 5565 5570 5574 5578 5583 5585
5631 5626 5620 5612 5605 5597 5589 5582 5576 5569 5562 5556 5551 5545 5542 5538 5534 5530 5528 5523 5522 5520 5520 5519 5518 5516 5517 5517 5516 5517 5519 5520 5522 5526 5529 5531 5536 5540 5542 5547 5551 5554 5560 5564 5568 5572 5576
5621 5616 5610 5604 5595 5587 5579 5572 5566 5559 5552 5546 5540 5536 5531 5528 5521 5518 5516 5513 5508 5505 5504 5503 5502 5502 5503 5503 5504 5504 5506 5508 5511 5514 5518 5521 5525 5528 5531 5534 5535 5545 5549 5554 5558 5561 5564
5610 5606 5600 5593 5585 5576 5568 5561 5553 5547 5541 5533 5529 5523 5518 5514 5510 5505 5501 5498 5495 5491 5488 5486 5484 5484 5485 5487 5488 5489 5493 5495 5500 5502 5505 5510 5514 5517 5518 5523 5528 5532 5537 5543 5548 5552 5555
5600 5595 5590 5583 5575 5566 5558 5549 5541 5534 5528 5522 5515 5509 5503 5498 5495 5488 5484 5480 5476 5472 5469 5467 5465 5464 5466 5468 5470 5473 5478 5481 5486 5490 5495 5499 5502 5507 5509 5512 5517 5522 5526 5532 5537 5540 5544
5590 5584 5577 5571 5564 5556 5546 5537 5529 5522 5515 5510 5502 5495 5489 5483 5479 5473 5466 5459 5455 5451 5448 5445 5442 5443 5444 5448 5452 5458 5463 5467 5471 5477 5484 5487 5491 5496 5501 5503 5506 5511 5515 5520 5526 5534 5534
5580 5573 5566 5559 5552 5543 5534 5525 5517 5511 5504 5497 5489 5481 5475 5469 5463 5457 5449 5442 5434 5427 5421 5417 5416 5419 5423 5428 5435 5442 5447 5453 5459 5465 5470 5475 5481 5486 5492 5496 5500 5501 5505 5513 5515 5517 5522
5568 5561 5554 5548 5540 5532 5522 5513 5505 5498 5491 5484 5476 5468 5461 5454 5447 5440 5432 5423 5414 5409 5405 5403 5402 5401 5404 5411 5419 5426 5434 5440 5447 5453 5459 5465 5471 5477 5485 5489 5491 5493 5496 5501 5504 5509 5512